Regional Weather Roundup
Issued by NWS Portland, ME

Home | Current Version | Previous Version | Text Only | Print | Product List | Glossary On
Versions: 1 2 3 4 5 6 7 8 9 10 11 12 13 14 15 16 17 18 19 20 21 22 23 24 25 26 27 28 29 30 31 32 33 34 35 36 37 38 39 40 41 42 43 44 45 46 47 48 49 50
619
ASUS41 KGYX 250010
RWRGYX
WEATHER ROUNDUP FOR MAINE AND NEW HAMPSHIRE
NATIONAL WEATHER SERVICE GRAY ME
800 PM EDT SUN JUL 24 2016

MEZ002-005-006-010-012-015-018-020-021-024-026-027-029-250100-
MAINE

CITY           SKY/WX    TMP DP  RH WIND       PRES   REMARKS
PORTLAND       PTCLDY    73  61  65 S6        29.94R
6HR MIN TEMP:  73; 6HR MAX TEMP:  82;

SANFORD          N/A     74  67  78 CALM      29.95R
BAR HARBOR     PTCLDY    74  62  66 SW7       29.91R
WISCASSET      PTCLDY    73  62  68 SW5       29.96R
6HR MIN TEMP:  73; 6HR MAX TEMP:  84;

ROCKLAND       CLEAR     69  62  78 CALM      29.93R
FRYEBURG       NOT AVBL
LEWISTONAUBURN PTCLDY    75  59  57 N5        29.95R
AUGUSTA        CLEAR     76  56  49 W6        29.95R
6HR MIN TEMP:  76; 6HR MAX TEMP:  83;

WATERVILLE     CLEAR     75  58  55 CALM      29.92R
BANGOR         MOCLDY    79  57  46 W6        29.92R
6HR MIN TEMP:  79; 6HR MAX TEMP:  88;

GREENVILLE       N/A     67  53  61 CALM      29.96R
6HR MIN TEMP:  67; 6HR MAX TEMP:  75;

MILLINOCKET    PTCLDY    75  58  55 CALM      29.93R
6HR MIN TEMP:  74; 6HR MAX TEMP:  84;

HOULTON        PTCLDY    70  65  84 CALM      29.89R
6HR MIN TEMP:  70; 6HR MAX TEMP:  84;

PRESQUE ISLE   CLEAR     72  60  66 NW6       29.92R
6HR MIN TEMP:  72; 6HR MAX TEMP:  81;

FRENCHVILLE    PTCLDY    68  54  60 NW7       29.93R
6HR MIN TEMP:  68; 6HR MAX TEMP:  78;

CARIBOU        CLEAR     71  58  63 N7        29.91R
6HR MIN TEMP:  71; 6HR MAX TEMP:  83;

$$

NHZ002-005-008-009-011-012-014-250100-
NEW HAMPSHIRE

CITY           SKY/WX    TMP DP  RH WIND       PRES   REMARKS
PORTSMOUTH     MOCLDY    79  59  50 NW5       29.93R
ROCHESTER      PTCLDY    78  55  44 NW7       29.94R
6HR MIN TEMP:  78; 6HR MAX TEMP:  86;

NASHUA         PTCLDY    82  51  34 NW6       29.96R
MANCHESTER     PTCLDY    83  45  26 NW9       29.94R
6HR MIN TEMP:  83; 6HR MAX TEMP:  89;

CONCORD        CLOUDY    79  49  34 NW7       29.96R
6HR MIN TEMP:  79; 6HR MAX TEMP:  89;

LACONIA        PTCLDY    75  55  49 VRB3      29.98R
PLYMOUTH       FAIR      73  57  58 CALM      29.97S
BERLIN         CLEAR     70  57  63 CALM      30.01R
6HR MIN TEMP:  70; 6HR MAX TEMP:  77;

WHITEFIELD     PTCLDY    68  60  75 CALM      30.01R
6HR MIN TEMP:  68; 6HR MAX TEMP:  76;

JAFFREY        CLEAR     78  53  41 CALM      30.01R
6HR MIN TEMP:  78; 6HR MAX TEMP:  85;

KEENE          CLEAR     76  60  57 CALM      29.99
LEBANON        CLEAR     70  60  70 CALM      29.98R
6HR MIN TEMP:  70; 6HR MAX TEMP:  85;

MT WASHINGTON  PTCLDY    54  28  37 NW18        N/A
6HR MIN TEMP:  53; 6HR MAX TEMP:  59;

$$

VTZ005-007-008-250100-
VERMONT

CITY           SKY/WX    TMP DP  RH WIND       PRES   REMARKS
ST JOHNSBURY     N/A     71  61  70 MISG      29.98R
MONTPELIER     FAIR      66  56  70 S5        30.04R
BURLINGTON     MOCLDY    75  56  51 NW7       29.98R
$$

MAZ007-012-024-CTZ003-RIZ002-NYZ038-NYZ072-250100-
SOUTHERN NEW ENGLAND AND NY

CITY           SKY/WX    TMP DP  RH WIND       PRES   REMARKS
BOSTON         PTCLDY    75  63  66 N6        29.94R
WORCESTER      CLEAR     78  53  41 NW6       29.99R
NANTUCKET      PTCLDY    69  66  90 S5        29.97R
PROVIDENCE     MOCLDY    81  63  54 SW12      29.94R
HARTFORD       MOCLDY    83  56  39 N5        29.94R
ALBANY         MOCLDY    81  56  42 NW5       29.95S
NEW YORK CITY  MOCLDY    85  68  56 S9        29.93R
$$

ANZ081-ANZ082-ANZ150-NHZ014-MEZ023>029-250100-
COASTAL MARINE OBSERVATIONS

STATION/POSITION TIME  TEMP    WIND        PRES    WAVE
                       AIR SEA DIR/SP/G            HT/PER
                 (UTC) (F)     (DEG/KT/KT) (MB)    (FT/S)
MOUNT DESERT ROC 0000   63     230/ 17/ 17 1013.2R
MATINICUS ROCK   0000   65     250/ 11/ 14 1013.4R
ISLE OF SHOALS   0000   71     170/ 11/ 12 1013.7R
JEFFREYS LEDGE   2308      70                N/A     2/ 8
CASHES LEDGE BUO 2350   71 70  210/  8/ 10 1014.3R   2/ 7
GEORGES BANK BUO 2250   65 64              1013.1    4/ 7
$$

.............KEY..............
   WCI - WIND CHILL
   TC  - TEMPERATURE IN CELSIUS
   VSB - VISIBILITY IN MILES
   HX  - HEAT INDEX
   FAIR- INDICATES FEW OR NO CLOUDS BELOW 12,000 FT, WITH NO
         SIGNIFICANT WEATHER AND/OR OBSTRUCTIONS TO VISIBILITY.






USA.gov is the U.S. government's official web portal to all federal, state and local government web resources and services.